Regional Weather Roundup
Issued by NWS Goodland, KS

Home | Current Version | Previous Version | Text Only | Print | Product List | Glossary Off
Versions: 1 2 3 4 5 6 7 8 9 10 11 12 13 14 15 16 17 18 19 20 21 22 23 24 25 26 27 28 29 30 31 32 33 34 35 36 37 38 39 40 41 42 43 44 45 46 47 48 49 50

000
ASUS43 KGLD 290959
RWRGLD

GOODLAND FORECAST AREA HOURLY WEATHER ROUNDUP
NATIONAL WEATHER SERVICE GOODLAND KS
400 AM MDT FRI AUG 29 2014

...OFFICIAL OBSERVATIONS...

CITY           SKY/WX    TMP DP  RH WIND       PRES   REMARKS
GOODLAND KS    CLEAR     56  53  90 W9        29.97F
HILL CITY KS   CLOUDY    64  59  83 CALM      29.87R
IMPERIAL NEB   CLEAR     57  52  83 NW12      29.94F
MCCOOK NEB     CLEAR     58  55  90 NW7       29.89F
AKRON CO       CLEAR     54  49  83 W12       30.03S
BURLINGTON CO  CLEAR     54  49  83 W5        30.00F
LIMON CO       PTCLDY    48  45  89 NW3       30.10S
$$

...UNOFFICIAL OBSERVATIONS...

CITY           SKY/WX    TMP DP  RH WIND       PRES   REMARKS
COLBY KS       CLEAR     57  57 100 W8        29.94F
GOVE KS          N/A     60  32  34 CALM        N/A
NORTON KS      CLEAR     61  54  77 W9        29.86F
SHARON SPRINGS   N/A     55  53  95 W7          N/A
WAKEENEY KS      N/A     65  58  78 MISG        N/A
KIT CARSON CO    N/A     58  48  69 CALM        N/A
YUMA CO          N/A     54  50  87 N10         N/A
$$


USA.gov is the U.S. government's official web portal to all federal, state and local government web resources and services.